SAR-LUPE 2 1 31797U 07030A 26237.27322946 .00044352 00000+0 56296-3 0 9990 2 31797 98.1076 350.8284 0007719 181.3801 178.7433 15.59275490 67672 SAPPHIRE 1 39088U 13009C 26237.24896535 .00000076 00000+0 41383-4 0 9998 2 39088 98.4302 55.0824 0012081 47.7524 312.4684 14.35256237706482 PRAETORIAN SDA_602 1 65565U 25203A 26237.21213584 .00000028 00000+0 14835-4 0 9999 2 65565 81.3043 306.8791 0006175 20.5868 339.5537 13.83891182 48247 PRAETORIAN SDA_603 1 65566U 25203B 26237.16595508 .00000157 00000+0 13039-3 0 9990 2 65566 81.3048 306.8412 0009688 12.5363 347.6032 13.83964930 48248 PRAETORIAN SDA_604 1 65567U 25203C 26237.15813405 .00000056 00000+0 40724-4 0 9999 2 65567 81.3066 307.3698 0005812 26.1814 333.9635 13.83054558 48218 PRAETORIAN SDA_605 1 65568U 25203D 26237.18572421 .00000052 00000+0 36276-4 0 9996 2 65568 81.3031 306.9602 0008246 12.0971 348.0381 13.83203945 48236 PRAETORIAN SDA_606 1 65569U 25203E 26237.17091125 .00000623 00000+0 55802-3 0 9992 2 65569 81.3070 307.2276 0006191 17.4027 342.7340 13.83211363 48227 PRAETORIAN SDA_607 1 65570U 25203F 26237.21705020 .00000145 00000+0 12031-3 0 9991 2 65570 81.3049 306.7624 0008938 12.8476 347.2906 13.83762598 48256 PRAETORIAN SDA_608 1 65571U 25203G 26237.19777161 .00000063 00000+0 46222-4 0 9993 2 65571 81.3019 306.9264 0006237 23.3711 336.7728 13.83822967 48235 PRAETORIAN SDA_609 1 65572U 25203H 26237.18315079 .00000145 00000+0 11935-3 0 9992 2 65572 81.3059 306.9114 0006943 16.0581 344.0794 13.84215013 48247 PRAETORIAN SDA_610 1 65573U 25203J 26237.18827839 .00000034 00000+0 20481-4 0 9999 2 65573 81.3021 306.9178 0006929 21.5206 338.6240 13.83532296 48234 PRAETORIAN SDA_611 1 65574U 25203K 26237.20367086 .00000138 00000+0 11493-3 0 9993 2 65574 81.3028 307.0985 0006001 28.6307 331.5178 13.83313502 48229 PRAETORIAN SDA_612 1 65575U 25203L 26237.17934377 .00000123 00000+0 98059-4 0 9991 2 65575 81.3038 306.5385 0009291 12.7452 347.3938 13.85044834 48262 PRAETORIAN SDA_613 1 65576U 25203M 26237.16512860 .00000033 00000+0 19366-4 0 9994 2 65576 81.3012 307.1852 0005797 18.6194 341.5173 13.82770911 48217 PRAETORIAN SDA_614 1 65577U 25203N 26237.18157267 .00000052 00000+0 35534-4 0 9999 2 65577 81.3026 306.6312 0007161 13.3509 346.7836 13.84783116 48268 PRAETORIAN SDA_615 1 65578U 25203P 26237.17544256 .00000155 00000+0 12740-3 0 9994 2 65578 81.3035 306.6442 0009006 11.9732 348.1637 13.84441283 48255 PRAETORIAN SDA_616 1 65579U 25203Q 26237.20491087 .00000177 00000+0 15027-3 0 9997 2 65579 81.3076 307.2893 0005823 27.2052 332.9408 13.83273870 48224 PRAETORIAN SDA_617 1 65580U 25203R 26237.16004967 .00000049 00000+0 33937-4 0 9990 2 65580 81.3049 307.1554 0007435 13.6534 346.4822 13.83155417 48220 PRAETORIAN SDA_618 1 65581U 25203S 26237.22136552 .00000172 00000+0 14320-3 0 9995 2 65581 81.3035 306.5467 0009876 14.5149 345.6289 13.84228501 48263 PRAETORIAN SDA_619 1 65582U 25203T 26237.20989551 .00000189 00000+0 15991-3 0 9992 2 65582 81.3062 306.9246 0008248 12.5816 347.5545 13.83729441 48875 PRAETORIAN SDA_620 1 65583U 25203U 26237.18938477 .00000194 00000+0 16610-3 0 9996 2 65583 81.3041 307.0059 0007475 11.5410 348.5916 13.83210488 48236 PRAETORIAN SDA_621 1 65584U 25203V 26237.21076825 .00000024 00000+0 10701-4 0 9999 2 65584 81.3033 306.8436 0007304 8.2114 351.9160 13.83807572 48245 PRAETORIAN SDA_601 1 65585U 25203W 26237.21302492 .00000319 00000+0 28070-3 0 9996 2 65585 81.3057 307.2172 0005933 30.0996 330.0500 13.83174009 48227 VICTUS HAZE PUMA 1 69646U 26142A 26237.29443072 .00000122 00000+0 84894-5 0 9999 2 69646 97.3855 133.9950 0011441 160.6682 199.4990 15.21395664 10172